{"data":{"norad_id":45157,"epoch":"2026-05-25T03:22:28.381728Z","epoch_age_seconds":52960,"freshness":"FRESH","line1":"1 45157U 20008AC  26145.14060627  .00000041  00000+0  80290-4 0  9993","line2":"2 45157  87.8855  40.8727 0002343  81.0178 279.1214 13.10377312304898","mean_motion":13.10377312,"eccentricity":0.0002343,"inclination_deg":87.8855,"raan_deg":40.8727,"arg_perigee_deg":81.0178,"mean_anomaly_deg":279.1214,"bstar":8.029e-5,"rev_number":30489,"period_min":109.89201253814,"perigee_km":1219.9191291098,"apogee_km":1223.4804126206,"semimajor_km":7599.8367708652,"source":"CELESTRAK","updated_at":"2026-05-25T13:38:22.338835Z"}}